Location: Newark
(34.1333°N, 7.9667°W)
Time: 15:09:19
(UTC+00:00)

CAS-4A - Visible Passes

Search period start: 10 June 2023 00:00
Search period end: 20 June 2023 00:00
Orbit: 507 x 521 km, 43.0° (Epoch: 10 June)

Date Brightness Start Highest point End Pass type
(mag) Time Alt. Az. Time Alt. Az. Time Alt. Az.
10 Jun ? 21:30:01 10° W 21:33:35 33° NNW 21:37:10 10° NE visible
10 Jun ? 23:10:51 10° NW 23:13:56 22° N 23:14:15 21° N visible
11 Jun ? 21:12:23 10° W 21:15:54 31° NNW 21:19:26 10° NE visible
11 Jun ? 22:53:12 10° NW 22:56:18 22° N 22:57:14 20° NNE visible
12 Jun ? 20:54:46 10° WNW 20:58:14 29° NNW 21:01:41 10° NE visible
12 Jun ? 22:35:32 10° NW 22:38:38 22° N 22:40:05 18° NE visible
13 Jun ? 20:37:08 10° WNW 20:40:32 27° NNW 20:43:56 10° NE visible
13 Jun ? 22:17:49 10° NW 22:20:57 22° N 22:22:51 16° NE visible
13 Jun ? 23:57:23 10° NW 23:57:42 12° NW 23:57:42 12° NW visible
14 Jun ? 20:19:29 10° WNW 20:22:50 26° NNW 20:26:10 10° NE visible
14 Jun ? 22:00:06 10° NW 22:03:16 23° N 22:05:34 14° NE visible
14 Jun ? 23:39:36 10° NW 23:40:26 15° NW 23:40:26 15° NW visible
15 Jun ? 21:42:20 10° NW 21:45:33 23° N 21:48:16 12° ENE visible
15 Jun ? 23:21:49 10° NW 23:23:07 20° NW 23:23:07 20° NW visible
16 Jun ? 21:24:34 10° NW 21:27:49 24° N 21:30:57 11° ENE visible
16 Jun ? 23:04:00 10° WNW 23:05:48 25° NW 23:05:48 25° NW visible
17 Jun ? 21:06:45 10° NW 21:10:04 25° N 21:13:22 10° ENE visible
17 Jun ? 22:46:11 10° WNW 22:48:30 33° NW 22:48:30 33° NW visible
18 Jun ? 20:48:56 10° NW 20:52:18 26° NNE 20:55:39 10° ENE visible
18 Jun ? 22:28:21 10° WNW 22:31:11 46° NW 22:31:11 46° NW visible
19 Jun ? 20:31:06 10° NW 20:34:31 28° NNE 20:37:55 10° ENE visible
19 Jun ? 22:10:31 10° WNW 22:13:53 64° WNW 22:13:53 64° WNW visible
